sat.trackr.live / text

‹ back to catalog

JILIN-1 04

NORAD 43022 · 2017-074A

PAYLOAD ACTIVE UNKNOWN

§ Identity

Operator
Country
PRC
Launch date
2017-11-21
Launch site
TAISC
Launch vehicle
Mass (kg)
RCS (m²)

External: N2YO · Heavens-Above · Gunter

§ Orbital elements

Epoch: 2026-05-25T04:20:30.873696Z

Period
93.40 min
Inclination
97.4832°
Eccentricity
0.0002517
Mean motion
15.41772474 rev/d
Perigee alt
439.2 km
Apogee alt
442.6 km
Semi-major
6,819.0 km
B*
3.1803e-4
RAAN
254.1948°
Arg perigee
274.1611°
Mean anomaly
85.9348°
Rev number
47,072

§ Raw data

JILIN-1 041 43022U 17074A   26145.18091289  .00013373  00000+0  31803-3 0  99902 43022  97.4832 254.1948 0002517 274.1611  85.9348 15.41772474470725

JSON: /api/v1/satellites/43022 · /tle

For live sub-satellite position, see the globe view (requires WebGL).

§ Visibility from observer

Set your observer location to see the next 7 days of passes ≥ 10°. The values pass through the URL so the page stays shareable.

No JS? Fill the form by hand. The geolocation button needs JavaScript.

§ Radio — SatNOGS DB

ModeDescriptionDownlinkUplink
BPSK Telemetry 2.219 GHz

1 transmitter · refreshed weekly from db.satnogs.org